�N����,����,�~����,�C��,���x,�C��,����,���ϕ���,�ő�u�ԕ���,�ő厞����,���˗�,�I�_���x,�n�����x,�ő啗���N��,DTYPE
"18/03/03","00:10",0.0,1.0,90.2,1010.9,289.3,1.6,2.0,301.5,0.00,-0.4,7.0,"00:02:48",1
"18/03/03","00:20",0.0,1.0,90.1,1010.7,296.7,2.0,2.8,322.6,0.00,-0.4,6.8,"00:15:36",1
"18/03/03","00:30",0.0,1.1,90.1,1010.7,298.6,1.8,2.9,313.0,0.00,-0.3,6.8,"00:29:44",1
"18/03/03","00:40",0.0,1.2,89.5,1010.7,302.8,2.2,2.9,316.5,0.00,-0.3,6.8,"00:30:56",1
"18/03/03","00:50",0.0,1.1,89.5,1010.7,310.6,1.6,2.1,318.2,0.00,-0.4,6.8,"00:40:32",1
"18/03/03","01:00",0.0,0.9,89.4,1010.7,312.7,1.7,2.7,334.3,0.00,-0.6,6.8,"00:55:04",1
"18/03/03","01:10",0.0,0.6,90.3,1010.7,301.9,1.5,2.1,321.0,0.00,-0.8,6.6,"01:02:00",1
"18/03/03","01:20",0.0,0.8,91.3,1010.7,288.4,1.3,2.0,308.0,0.00,-0.4,6.6,"01:19:28",1
"18/03/03","01:30",0.0,0.9,90.3,1010.7,303.7,1.3,1.9,311.1,0.00,-0.5,6.5,"01:20:48",1
"18/03/03","01:40",0.0,0.5,90.8,1011.2,317.0,2.0,2.7,319.8,0.00,-0.8,6.4,"01:32:56",1
"18/03/03","01:50",0.0,0.4,92.7,1010.9,317.9,1.3,1.7,320.8,0.00,-0.6,6.5,"01:40:24",1
"18/03/03","02:00",0.0,0.3,92.4,1010.9,318.7,1.6,1.9,323.1,0.00,-0.7,6.5,"01:51:04",1
"18/03/03","02:10",0.0,0.1,93.0,1010.4,316.0,1.1,1.7,324.4,0.00,-0.9,6.1,"02:00:40",1
"18/03/03","02:20",0.0,-0.1,94.0,1010.7,310.5,0.7,1.3,318.9,0.00,-0.9,6.2,"02:18:48",1
"18/03/03","02:30",0.0,0.0,94.2,1010.7,311.1,1.0,1.7,321.5,0.00,-0.8,6.2,"02:26:40",1
"18/03/03","02:40",0.0,0.0,94.1,1010.7,313.7,0.8,1.2,316.1,0.00,-0.8,6.3,"02:30:16",1
"18/03/03","02:50",0.0,-0.1,95.0,1010.2,309.8,0.8,1.2,313.7,0.00,-0.8,6.1,"02:47:44",1
"18/03/03","03:00",0.0,0.0,94.9,1010.2,322.4,1.1,1.8,345.8,0.00,-0.7,6.2,"02:58:40",1
"18/03/03","03:10",0.0,-0.1,94.8,1010.2,312.4,1.0,1.7,330.5,0.00,-0.8,6.2,"03:00:08",1
"18/03/03","03:20",0.0,-0.3,95.1,1010.2,261.4,0.2,0.6,295.5,0.00,-0.9,5.9,"03:10:08",1
"18/03/03","03:30",0.0,-0.4,95.2,1010.4,135.9,0.1,0.5,154.3,0.00,-1.0,6.0,"03:20:48",1
"18/03/03","03:40",0.0,-0.6,96.0,1010.2,332.9,1.1,2.0,337.5,0.00,-1.1,5.9,"03:34:56",1
"18/03/03","03:50",0.0,-0.6,95.5,1010.2,331.8,1.0,1.1,335.2,0.00,-1.2,6.0,"03:41:04",1
"18/03/03","04:00",0.0,-0.5,96.5,1010.2,329.7,0.7,1.2,329.5,0.00,-0.9,6.0,"03:52:40",1
"18/03/03","04:10",0.0,-0.4,96.3,1010.2,319.6,0.7,1.0,325.8,0.00,-0.9,5.8,"04:00:40",1
"18/03/03","04:20",0.0,-0.6,96.3,1010.4,324.4,1.0,1.6,322.4,0.00,-1.1,5.6,"04:18:16",1
"18/03/03","04:30",0.0,-0.5,97.1,1010.7,298.6,0.8,1.2,330.2,0.00,-0.9,5.8,"04:22:00",1
"18/03/03","04:40",0.0,-0.4,97.1,1010.7,283.4,0.7,1.1,300.0,0.00,-0.8,5.7,"04:30:16",1
"18/03/03","04:50",0.0,-0.4,96.7,1010.7,321.5,0.7,1.0,316.0,0.00,-0.8,5.9,"04:41:36",1
"18/03/03","05:00",0.0,-0.6,97.0,1010.7,323.8,0.8,1.6,342.1,0.00,-1.0,5.8,"04:51:36",1
"18/03/03","05:10",0.0,-0.5,97.5,1010.9,301.2,1.1,1.7,325.5,0.00,-0.8,5.7,"05:00:40",1
"18/03/03","05:20",0.0,-0.2,97.0,1010.9,289.1,1.0,2.0,331.1,0.00,-0.6,5.6,"05:19:20",1
"18/03/03","05:30",0.0,-0.7,96.0,1011.2,324.9,1.0,1.7,331.1,0.00,-1.2,5.6,"05:26:42",1
"18/03/03","05:40",0.0,-1.0,97.3,1011.4,315.8,1.3,1.7,323.0,0.00,-1.3,5.4,"05:36:08",1
"18/03/03","05:50",0.0,-0.8,97.9,1011.4,317.6,1.2,1.8,324.1,0.00,-1.0,5.4,"05:47:52",1
"18/03/03","06:00",0.0,-1.0,96.8,1011.4,341.1,1.3,1.9,334.3,0.00,-1.4,5.5,"05:50:16",1
"18/03/03","06:10",0.0,-1.3,97.5,1011.4,292.3,0.7,1.4,323.0,0.00,-1.6,5.5,"06:00:16",1
"18/03/03","06:20",0.0,-1.0,98.4,1011.4,311.8,1.2,1.7,316.6,0.00,-1.2,5.3,"06:13:28",1
"18/03/03","06:30",0.0,-0.7,96.8,1011.4,329.6,1.2,1.7,318.0,0.00,-1.1,5.2,"06:28:24",1
"18/03/03","06:40",0.0,-1.0,97.4,1011.6,318.7,1.1,1.8,320.7,0.00,-1.3,5.2,"06:38:32",1
"18/03/03","06:50",0.0,-0.9,98.1,1011.6,323.0,1.1,1.8,318.7,0.00,-1.1,5.1,"06:40:16",1
"18/03/03","07:00",0.0,-0.5,97.6,1011.9,314.0,0.8,1.1,328.4,0.00,-0.8,5.2,"06:59:44",1
"18/03/03","07:10",0.0,-0.3,98.0,1011.6,290.2,1.1,1.3,313.5,0.00,-0.5,5.2,"07:02:08",1
"18/03/03","07:20",0.0,0.8,96.7,1011.9,291.4,1.1,1.4,307.3,0.00,0.4,5.3,"07:17:44",1
"18/03/03","07:30",0.0,0.8,96.2,1012.3,293.7,1.3,2.2,312.0,0.01,0.3,5.2,"07:25:52",1
"18/03/03","07:40",0.0,1.4,95.0,1012.6,243.9,0.6,1.2,265.5,0.02,0.7,5.4,"07:31:20",1
"18/03/03","07:50",0.0,2.3,92.6,1012.8,245.4,0.6,1.9,316.2,0.05,1.3,5.2,"07:49:04",1
"18/03/03","08:00",0.0,2.2,92.7,1013.0,318.9,2.1,2.8,321.8,0.06,1.2,5.3,"07:55:08",1
"18/03/03","08:10",0.0,3.2,89.9,1013.5,305.3,1.8,2.7,316.2,0.08,1.7,5.5,"08:01:52",1
"18/03/03","08:20",0.0,3.8,85.0,1014.0,257.3,0.6,1.1,262.5,0.11,1.6,5.5,"08:13:28",1
"18/03/03","08:30",0.0,4.4,82.0,1014.0,256.1,0.6,1.3,263.7,0.14,1.6,5.8,"08:21:52",1
"18/03/03","08:40",0.0,4.9,80.4,1014.5,248.3,0.5,1.2,283.4,0.16,1.9,5.7,"08:33:04",1
"18/03/03","08:50",0.0,5.6,79.7,1014.2,221.4,0.5,1.1,281.6,0.19,2.4,5.9,"08:40:24",1
"18/03/03","09:00",0.0,6.1,75.1,1014.5,253.4,0.8,1.3,251.2,0.22,2.1,6.0,"08:55:04",1
"18/03/03","09:10",0.0,6.9,71.2,1014.5,238.3,0.7,1.4,245.8,0.26,2.1,6.4,"09:08:32",1
"18/03/03","09:20",0.0,7.7,66.7,1015.2,278.3,0.8,1.3,276.2,0.28,1.9,6.6,"09:16:16",1
"18/03/03","09:30",0.0,7.9,68.2,1014.7,153.6,0.7,1.9,127.3,0.28,2.4,6.8,"09:27:44",1
"18/03/03","09:40",0.0,8.2,66.6,1014.7,197.0,0.8,1.4,162.1,0.28,2.4,6.8,"09:39:44",1
"18/03/03","09:50",0.0,8.3,62.8,1014.9,129.9,1.1,2.1,173.3,0.33,1.7,7.1,"09:47:04",1
"18/03/03","10:00",0.0,8.8,62.5,1014.9,239.2,0.8,2.1,246.7,0.33,2.1,7.4,"09:58:00",1
"18/03/03","10:10",0.0,9.3,60.1,1014.7,235.2,0.7,1.3,273.5,0.33,2.0,7.6,"10:07:36",1
"18/03/03","10:20",0.0,9.7,57.6,1014.5,218.1,0.8,1.9,176.4,0.36,1.8,7.9,"10:16:32",1
"18/03/03","10:30",0.0,10.4,56.8,1014.5,236.5,1.1,2.0,236.2,0.42,2.2,8.1,"10:26:48",1
"18/03/03","10:40",0.0,11.0,55.3,1014.2,211.0,1.2,2.5,204.8,0.45,2.4,8.2,"10:33:28",1
"18/03/03","10:50",0.0,11.3,55.2,1014.2,216.8,1.2,2.7,199.2,0.43,2.7,8.3,"10:42:00",1
"18/03/03","11:00",0.0,11.6,53.0,1014.0,214.2,1.2,3.4,203.7,0.43,2.4,8.7,"10:54:48",1
"18/03/03","11:10",0.0,11.6,53.8,1013.8,190.7,1.2,2.6,197.7,0.39,2.6,9.0,"11:03:44",1
"18/03/03","11:20",0.0,11.7,52.3,1013.5,202.5,1.1,2.1,174.1,0.39,2.3,9.4,"11:16:24",1
"18/03/03","11:30",0.0,12.2,51.8,1013.3,170.8,0.7,2.0,139.4,0.35,2.6,9.5,"11:29:28",1
"18/03/03","11:40",0.0,12.5,53.0,1013.0,175.5,1.2,3.1,144.2,0.37,3.2,9.7,"11:36:16",1
"18/03/03","11:50",0.0,12.6,50.8,1012.8,185.3,1.5,2.9,135.7,0.47,2.7,9.8,"11:41:52",1
"18/03/03","12:00",0.0,13.6,49.5,1012.8,222.1,1.3,2.7,151.4,0.50,3.3,10.1,"11:54:16",1
"18/03/03","12:10",0.0,13.8,50.0,1012.1,188.6,1.3,2.7,166.5,0.51,3.6,10.5,"12:04:32",1
"18/03/03","12:20",0.0,14.3,47.4,1011.4,189.9,1.3,2.5,117.4,0.53,3.3,10.8,"12:11:36",1
"18/03/03","12:30",0.0,14.1,47.1,1011.6,216.3,1.7,4.3,220.4,0.54,3.0,10.8,"12:22:56",1
"18/03/03","12:40",0.0,14.2,43.7,1011.2,95.8,1.2,2.6,114.9,0.52,2.1,11.1,"12:38:08",1
"18/03/03","12:50",0.0,14.8,46.4,1011.2,124.7,1.1,2.5,104.9,0.47,3.5,11.4,"12:41:36",1
"18/03/03","13:00",0.0,14.8,42.7,1010.7,105.2,1.0,2.9,101.8,0.45,2.3,11.5,"12:57:04",1
"18/03/03","13:10",0.0,15.5,42.9,1010.9,49.1,1.0,2.1,118.0,0.43,3.0,11.7,"13:05:04",1
"18/03/03","13:20",0.0,15.4,45.6,1010.2,196.4,1.6,3.3,164.3,0.34,3.8,11.8,"13:13:36",1
"18/03/03","13:30",0.0,15.0,45.0,1010.4,188.9,1.3,3.1,234.4,0.27,3.2,12.0,"13:21:20",1
"18/03/03","13:40",0.0,15.2,44.2,1010.2,181.9,1.5,2.5,190.4,0.27,3.1,11.8,"13:36:40",1
"18/03/03","13:50",0.0,15.0,44.4,1010.2,208.5,1.5,3.1,233.8,0.25,3.0,11.9,"13:46:32",1
"18/03/03","14:00",0.0,15.2,45.1,1010.4,196.0,1.2,2.9,199.0,0.20,3.4,12.0,"13:55:04",1
"18/03/03","14:10",0.0,15.1,42.5,1010.2,290.6,0.8,1.6,239.4,0.19,2.5,12.1,"14:09:04",1
"18/03/03","14:20",0.0,15.3,42.6,1010.2,294.3,0.3,1.2,321.6,0.17,2.7,12.1,"14:15:52",1
"18/03/03","14:30",0.0,15.5,41.1,1010.4,136.3,1.5,2.5,115.6,0.17,2.4,12.1,"14:20:48",1
"18/03/03","14:40",0.0,15.7,38.1,1010.4,209.6,0.7,2.4,121.3,0.16,1.5,11.9,"14:30:16",1
"18/03/03","14:50",0.0,15.9,38.5,1010.2,221.2,0.5,1.6,54.4,0.15,1.8,12.1,"14:40:32",1
"18/03/03","15:00",0.0,15.6,37.9,1010.4,236.6,0.7,1.9,236.0,0.14,1.3,12.1,"14:59:36",1
"18/03/03","15:10",0.0,15.6,37.7,1010.4,303.5,1.1,2.7,343.7,0.11,1.3,11.8,"15:08:32",1
"18/03/03","15:20",0.0,16.0,36.8,1010.4,325.4,1.2,2.6,337.2,0.10,1.3,11.9,"15:15:44",1
"18/03/03","15:30",0.0,16.1,38.0,1010.2,286.4,0.8,2.2,243.4,0.09,1.8,12.0,"15:26:16",1
"18/03/03","15:40",0.0,16.0,38.0,1010.2,290.6,1.3,2.5,310.4,0.08,1.7,11.9,"15:31:04",1
"18/03/03","15:50",0.0,15.8,39.4,1010.4,282.4,1.2,2.7,242.1,0.06,2.1,11.5,"15:48:40",1
"18/03/03","16:00",0.0,15.6,39.1,1010.4,261.1,1.2,2.2,240.1,0.05,1.8,11.7,"15:58:00",1
"18/03/03","16:10",0.0,15.4,41.0,1010.2,256.0,0.8,1.8,263.1,0.04,2.3,11.7,"16:01:04",1
"18/03/03","16:20",0.0,15.3,41.9,1010.0,240.0,0.6,1.3,246.8,0.03,2.5,11.3,"16:12:00",1
"18/03/03","16:30",0.0,15.0,47.6,1010.4,226.3,1.1,2.8,197.2,0.02,4.0,11.5,"16:28:56",1
"18/03/03","16:40",0.0,14.6,51.5,1010.4,194.8,1.3,3.1,190.7,0.01,4.8,11.3,"16:34:24",1
"18/03/03","16:50",0.0,14.4,52.9,1010.7,201.8,1.5,4.1,212.6,0.01,5.0,11.4,"16:40:24",1
"18/03/03","17:00",0.0,14.3,54.0,1010.7,201.3,1.5,3.3,196.2,0.00,5.2,11.2,"16:55:20",1
"18/03/03","17:10",0.0,14.1,55.4,1010.4,198.9,1.2,2.7,221.0,0.00,5.3,11.2,"17:07:28",1
"18/03/03","17:20",0.0,13.8,57.6,1010.2,219.6,1.0,2.1,174.6,0.00,5.6,11.2,"17:10:08",1
"18/03/03","17:30",0.0,13.6,59.3,1010.0,231.5,1.0,3.1,201.7,0.00,5.9,11.1,"17:22:40",1
"18/03/03","17:40",0.0,13.5,59.3,1011.2,284.1,1.2,2.1,318.8,0.00,5.8,11.2,"17:34:56",1
"18/03/03","17:50",0.0,13.1,60.9,1010.9,310.0,0.8,1.4,294.7,0.00,5.8,10.8,"17:40:24",1
"18/03/03","18:00",0.0,12.4,65.6,1011.4,334.7,1.6,2.4,336.0,0.00,6.2,10.7,"17:52:56",1
"18/03/03","18:10",0.0,12.0,67.3,1010.9,324.2,1.1,1.6,347.9,0.00,6.2,10.7,"18:03:26",1
"18/03/03","18:20",0.0,11.6,69.2,1011.6,316.6,1.8,2.5,319.9,0.00,6.2,10.6,"18:17:50",1
"18/03/03","18:30",0.0,11.2,70.8,1011.6,321.8,2.0,2.4,337.6,0.00,6.1,10.5,"18:22:18",1
"18/03/03","18:40",0.0,10.9,72.6,1011.9,311.2,1.7,2.2,325.6,0.00,6.2,10.3,"18:36:54",1
"18/03/03","18:50",0.0,10.8,73.6,1012.1,324.8,2.0,2.8,331.8,0.00,6.3,10.6,"18:44:18",1
"18/03/03","19:00",0.0,10.8,73.7,1012.1,310.1,1.8,2.4,324.4,0.00,6.3,10.4,"18:53:22",1
"18/03/03","19:10",0.0,10.5,74.0,1011.6,308.5,1.6,2.1,321.6,0.00,6.1,10.3,"19:00:24",1
"18/03/03","19:20",0.0,10.3,75.7,1011.6,304.6,1.5,1.8,323.3,0.00,6.2,10.2,"19:14:18",1
"18/03/03","19:30",0.0,10.2,76.2,1011.9,295.4,1.7,2.1,275.1,0.00,6.2,10.1,"19:22:50",1
"18/03/03","19:40",0.0,10.1,76.5,1011.9,308.4,1.7,2.0,316.9,0.00,6.2,9.8,"19:34:48",1
"18/03/03","19:50",0.0,10.0,77.2,1011.9,295.3,1.7,2.4,320.8,0.00,6.2,10.0,"19:42:26",1
"18/03/03","20:00",0.0,10.1,77.2,1011.6,321.0,2.3,3.5,315.2,0.00,6.3,9.9,"19:54:16",1
"18/03/03","20:10",0.0,9.8,77.6,1012.3,316.3,2.1,3.2,324.6,0.00,6.1,10.0,"20:01:38",1
"18/03/03","20:20",0.0,9.5,78.8,1012.1,303.7,1.3,2.0,319.3,0.00,6.0,9.7,"20:17:38",1
"18/03/03","20:30",0.0,9.4,80.2,1012.6,325.3,1.7,2.1,316.5,0.00,6.2,9.7,"20:21:20",1
"18/03/03","20:40",0.0,9.1,81.7,1012.6,295.5,1.6,2.1,308.9,0.00,6.2,9.6,"20:33:44",1
"18/03/03","20:50",0.0,9.2,81.8,1012.8,299.3,1.8,2.6,315.5,0.00,6.3,9.4,"20:42:32",1
"18/03/03","21:00",0.0,9.3,81.4,1012.6,306.7,2.0,2.5,319.9,0.00,6.3,9.5,"20:54:32",1
"18/03/03","21:10",0.0,9.1,81.5,1012.6,322.3,1.7,2.2,323.6,0.00,6.1,9.4,"21:07:12",1
"18/03/03","21:20",0.0,8.9,83.9,1012.8,307.0,1.7,2.2,311.5,0.00,6.4,9.4,"21:18:24",1
"18/03/03","21:30",0.0,9.0,83.3,1012.6,301.2,1.7,2.7,330.8,0.00,6.4,9.3,"21:28:00",1
"18/03/03","21:40",0.0,8.9,82.5,1012.6,325.2,1.3,2.5,320.8,0.00,6.1,9.4,"21:39:44",1
"18/03/03","21:50",0.0,8.5,84.6,1012.3,321.4,1.7,2.5,325.8,0.00,6.1,9.3,"21:49:36",1
"18/03/03","22:00",0.0,8.3,85.3,1012.1,326.0,1.6,2.4,313.7,0.00,6.0,9.2,"21:50:24",1
"18/03/03","22:10",0.0,8.1,86.9,1012.1,311.1,1.6,2.0,321.7,0.00,6.1,9.2,"22:06:00",1
"18/03/03","22:20",0.0,8.3,86.9,1012.3,317.4,1.5,1.8,336.6,0.00,6.3,9.1,"22:10:48",1
"18/03/03","22:30",0.0,8.5,86.8,1012.1,323.6,1.8,2.2,322.4,0.00,6.5,9.2,"22:28:00",1
"18/03/03","22:40",0.0,8.5,87.0,1011.9,304.1,1.0,1.8,315.9,0.00,6.5,9.0,"22:30:16",1
"18/03/03","22:50",0.0,8.5,87.0,1012.1,310.1,1.2,1.9,319.6,0.00,6.5,9.0,"22:48:24",1
"18/03/03","23:00",0.0,8.5,87.4,1011.9,329.6,1.5,2.0,348.8,0.00,6.6,8.8,"22:56:48",1
"18/03/03","23:10",0.0,8.5,87.9,1012.3,311.8,1.6,2.4,332.1,0.00,6.7,9.1,"23:05:44",1
"18/03/03","23:20",0.0,8.3,88.8,1012.6,292.4,1.1,1.6,321.0,0.00,6.6,8.9,"23:18:32",1
"18/03/03","23:30",0.0,8.4,88.9,1012.3,291.7,1.5,2.1,340.2,0.00,6.7,8.8,"23:24:24",1
"18/03/03","23:40",0.0,8.5,87.6,1012.3,319.8,1.6,2.8,344.3,0.00,6.6,8.7,"23:31:36",1
"18/03/03","23:50",0.0,8.3,88.1,1012.6,118.3,0.5,1.1,134.8,0.00,6.5,8.8,"23:42:00",1
"18/03/03","24:00",0.0,7.8,86.8,1012.1,327.9,2.1,2.8,315.5,0.00,5.8,8.7,"23:56:32",1
